This is the latest recevied weather packets stored in our database for station/object WA4IKQ. If no packets are shown the sender has not sent any weather packets the latest 1 day(s).
| Time | Temp. | Humidity | Pressure | Rain* | Wind** | Luminosity | Snow |
|---|---|---|---|---|---|---|---|
| 1778035835 | 22.78° C | 65% | 1016.1 hPa | 0 mm | 0 m/s | - | - |
| 1778035833 | 22.78° C | 64% | 1016.1 hPa | 0 mm | 0.45 m/s, 58° | - | - |
| 1778035509 | 22.78° C | 64% | 1016.1 hPa | 0 mm | 0 m/s | - | - |
| 1778035447 | 22.78° C | 64% | 1016.1 hPa | 0 mm | 0 m/s | - | - |
| 1778035233 | 22.78° C | 64% | 1016.1 hPa | 0 mm | 0 m/s | - | - |
| 1778035212 | 22.78° C | 63% | 1016.1 hPa | 0 mm | 0.89 m/s, 75° | - | - |
| 1778034949 | 22.78° C | 63% | 1016.1 hPa | 0 mm | 0 m/s | - | - |
| 1778034634 | 22.78° C | 62% | 1016.1 hPa | 0 mm | 0.45 m/s, 62° | - | - |
| 1778034357 | 22.78° C | 62% | 1016.1 hPa | 0 mm | 0 m/s | - | - |
| 1778034332 | 22.78° C | 62% | 1016.1 hPa | 0 mm | 0.45 m/s, 62° | - | - |
| 1778034032 | 22.78° C | 62% | 1016.1 hPa | 0 mm | 0 m/s | - | - |
| 1778033733 | 23.33° C | 62% | 1016.1 hPa | 0 mm | 1.34 m/s, 68° | - | - |
| 1778033615 | 23.33° C | 61% | 1016 hPa | 0 mm | 0.89 m/s, 42° | - | - |
| 1778033430 | 23.33° C | 61% | 1016 hPa | 0 mm | 0.89 m/s, 42° | - | - |
| 1778033134 | 23.33° C | 60% | 1015.9 hPa | 0 mm | 0.89 m/s, 93° | - | - |
| 1778032712 | 23.33° C | 60% | 1015.9 hPa | 0 mm | 0 m/s | - | - |
| 1778032454 | 23.33° C | 59% | 1015.8 hPa | 0 mm | 0.45 m/s, 32° | - | - |
| 1778032232 | 23.33° C | 59% | 1015.8 hPa | 0 mm | 0.45 m/s, 32° | - | - |
| 1778032208 | 23.33° C | 59% | 1015.7 hPa | 0 mm | 1.34 m/s, 68° | - | - |
| 1778031932 | 23.33° C | 59% | 1015.7 hPa | 0 mm | 1.34 m/s, 68° | - | - |
| 1778031490 | 23.89° C | 58% | 1015.8 hPa | 0 mm | 0 m/s | - | - |
| 1778031330 | 23.89° C | 58% | 1015.8 hPa | 0 mm | 0 m/s | - | - |
| 1778031030 | 23.89° C | 58% | 1015.8 hPa | 0 mm | 0.89 m/s, 73° | - | - |
| 1778030731 | 23.89° C | 57% | 1015.8 hPa | 0 mm | 1.34 m/s, 60° | - | - |
| 1778030592 | 23.89° C | 57% | 1015.8 hPa | 0 mm | 1.34 m/s, 15° | - | - |
* Rain latest hour (hover to see other rain measurements)
** Current wind speed in m/s (hover to see current wind gust speed)